Regional Weather Roundup
Issued by NWS

Home | Current Version | Previous Version | Text Only | Print | Product List | Glossary Off
Versions: 1 2 3 4 5 6 7 8 9 10 11 12 13 14 15 16 17 18 19 20 21 22 23 24 25 26 27 28 29 30 31 32 33 34 35 36 37 38 39 40 41 42 43 44 45 46 47 48 49 50

000
ASUS45 KBOI 291210
RWRID

IDAHO REGIONAL WEATHER ROUNDUP
NATIONAL WEATHER SERVICE BOISE ID
600 AM MDT SUN MAY 29 2016

NOTE: "FAIR" INDICATES FEW OR NO CLOUDS BELOW 12000 FEET
WITH NO SIGNIFICANT WEATHER AND/OR OBSTRUCTIONS TO VISIBILITY

IDZ012-014-291300-
SOUTHWEST IDAHO


CITY           SKY/WX    TMP DP  RH WIND       PRES   REMARKS
BOISE          PTCLDY    50  34  54 SE8       30.02S HAZE
CALDWELL       CLEAR     45  36  70 SE3       30.03R
MOUNTAIN HOME  CLEAR     44  38  78 E8        30.04R
$$

IDZ016-017-291300-
SOUTHCENTRAL IDAHO


CITY           SKY/WX    TMP DP  RH WIND       PRES   REMARKS
BURLEY         CLEAR     42  37  82 CALM      30.07S
JEROME         CLEAR     43  36  76 E9        30.08R
TWIN FALLS     CLEAR     40  34  79 S7        30.07S
$$

IDZ019>023-291300-
SOUTHEAST IDAHO


CITY           SKY/WX    TMP DP  RH WIND       PRES   REMARKS
IDAHO FALLS    CLEAR     35  31  85 N3        30.13R
POCATELLO      PTCLDY    38  33  82 W6        30.11R WCI  33
REXBURG        CLEAR     37  32  82 NE3       30.14R
$$

IDZ006-010-011-018-031-032-291300-
CENTRAL IDAHO MOUNTAINS


CITY           SKY/WX    TMP DP  RH WIND       PRES   REMARKS
MCCALL         CLEAR     34  30  85 NE3       30.08S
HAILEY         PTCLDY    37  32  81 NW10      30.15R WCI  30
STANLEY          N/A     25  20  81 SE3       30.18S
SALMON         CLEAR     36  30  80 CALM      30.11R
CHALLIS        CLEAR     38  29  70 CALM      30.12R
$$

IDZ002-004-006-007-026-291300-
NORTHERN IDAHO


CITY           SKY/WX    TMP DP  RH WIND       PRES   REMARKS
LEWISTON       MOCLDY    51  43  74 CALM      30.00R
LOWELL           N/A     46  42  86 N5        30.08S
COEUR D`ALENE  CLOUDY    45  37  76 NE6       29.98S
MULLAN PASS    CLOUDY    40  32  73 S6        30.06S
$$



USA.gov is the U.S. government's official web portal to all federal, state and local government web resources and services.